EW4337 Weather Reports


Display with metric or nautical units.
time (UTC)temp
F
wind
direction
speed
MPH
gust
MPH
rain 1hr
in
rain 24hr
in
rain mn
in
humidity
%
barometer
mb
20260504081703 57 51 2.0 3.0 0.00 0.04 0.00 95 1012.2
20260504080702 57 56 1.0 3.0 0.00 0.04 0.00 95 1012.1
20260504070203 56 86 1.0 3.0 0.00 0.04 0.00 96 1011.6
20260504060203 56 133 2.0 3.0 0.00 0.04 0.00 96 1011.3
20260504050703 55 109 1.0 2.0 0.00 0.04 0.00 96 1010.9
20260504045702 55 141 1.0 2.0 0.00 0.04 0.00 96 1010.9
20260504045203 55 141 0.0 2.0 0.00 0.04 0.00 96 1010.9
20260504044703 55 141 1.0 2.0 0.00 0.04 0.00 96 1010.8
20260504044203 55 141 1.0 2.0 0.00 0.04 0.00 96 1010.7
20260504043703 55 141 1.0 2.0 0.00 0.04 0.00 96 1010.7
20260504043203 55 141 0.0 1.0 0.00 0.04 0.00 96 1010.7
20260504042203 55 141 0.0 2.0 0.00 0.04 0.00 95 1010.7
20260504041703 55 141 1.0 2.0 0.00 0.04 0.00 95 1010.7
20260504040703 54 127 2.0 3.0 0.00 0.04 0.00 95 1010.6
20260504040203 54 133 2.0 3.0 0.00 0.04 0.00 95 1010.7
20260504035703 54 127 1.0 2.0 0.00 0.04 0.00 96 1010.7
20260504034704 54 148 1.0 2.0 0.00 0.04 0.00 95 1010.6
20260504034203 54 227 1.0 2.0 0.00 0.04 0.00 95 1010.6
20260504033703 54 227 0.0 0.0 0.00 0.04 0.00 95 1010.6
20260504033203 54 227 0.0 1.0 0.00 0.04 0.00 95 1010.6
20260504032703 54 227 0.0 1.0 0.00 0.04 0.00 95 1010.7
20260504032203 54 227 1.0 2.0 0.00 0.04 0.00 95 1010.7
20260504031704 54 294 0.0 1.0 0.00 0.04 0.00 95 1010.7
20260504031203 54 294 0.0 0.0 0.00 0.04 0.00 95 1010.7
20260504030703 54 294 0.0 0.0 0.00 0.04 0.00 95 1010.8
20260504030204 54 294 0.0 0.0 0.00 0.04 0.00 95 1010.7
20260504025204 54 294 0.0 0.0 0.00 0.04 0.00 95 1010.6
20260504024703 54 294 0.0 0.0 0.00 0.04 0.00 95 1010.6
20260504024205 54 294 0.0 0.0 0.00 0.04 0.00 95 1010.5
20260504023204 54 294 0.0 0.0 0.00 0.04 0.00 95 1010.4
20260504022203 55 291 1.0 3.0 0.00 0.04 0.00 95 1010.3
20260504020203 55 296 2.0 3.0 0.00 0.04 0.00 95 1010.4
20260504015703 55 298 1.0 2.0 0.00 0.04 0.00 95 1010.4
20260504015203 55 288 3.0 3.0 0.00 0.04 0.00 95 1010.4
20260504014703 55 281 2.0 3.0 0.00 0.04 0.00 95 1010.4
20260504014204 55 294 2.0 3.0 0.00 0.04 0.00 95 1010.3
20260504013704 55 290 3.0 7.0 0.00 0.04 0.00 95 1010.3
20260504013204 55 293 2.0 6.0 0.00 0.04 0.00 95 1010.3
20260504012705 55 280 3.0 6.0 0.00 0.04 0.00 95 1010.3
20260504011204 55 274 3.0 7.0 0.00 0.04 0.00 95 1010.4
20260504010704 55 254 3.0 8.0 0.00 0.04 0.00 95 1010.3
20260504010204 55 269 5.0 9.0 0.00 0.04 0.00 95 1010.3
20260504005704 55 248 5.0 8.0 0.00 0.04 0.00 95 1010.3
20260504005204 56 260 3.0 7.0 0.00 0.04 0.00 95 1010.3
20260504004204 56 243 3.0 6.0 0.00 0.04 0.00 95 1010.3
20260504003204 56 291 2.0 3.0 0.00 0.04 0.00 95 1010.2
20260504002704 56 288 3.0 3.0 0.00 0.04 0.00 95 1010.2
20260504001204 56 285 3.0 3.0 0.00 0.04 0.00 95 1010.2
20260504000704 56 250 2.0 6.0 0.00 0.04 0.00 95 1010.2
20260503235703 56 279 3.0 6.0 0.00 0.04 0.00 95 1010.1
20260503235204 56 283 3.0 7.0 0.00 0.04 0.00 95 1010.1
20260503234703 56 259 3.0 7.0 0.00 0.04 0.00 95 1010.1
20260503234204 56 273 2.0 3.0 0.00 0.04 0.00 95 1010.1
20260503233704 56 273 2.0 6.0 0.00 0.04 0.00 95 1010.1
20260503233204 56 283 2.0 3.0 0.00 0.04 0.00 95 1010.1
20260503232704 57 273 2.0 3.0 0.00 0.04 0.00 95 1010.0
20260503231704 57 247 2.0 3.0 0.00 0.04 0.00 95 1010.0
20260503231204 57 239 2.0 3.0 0.00 0.04 0.00 95 1010.0
20260503230704 57 245 2.0 5.0 0.00 0.04 0.00 95 1010.0
20260503225704 57 282 2.0 6.0 0.00 0.04 0.00 95 1010.1
20260503225204 57 272 2.0 3.0 0.00 0.04 0.00 95 1010.0
20260503224704 57 246 1.0 3.0 0.00 0.04 0.00 95 1010.0
20260503223704 57 251 1.0 2.0 0.00 0.04 0.00 95 1010.0
20260503223204 57 251 1.0 3.0 0.00 0.04 0.00 95 1010.0
20260503222703 57 248 0.0 1.0 0.00 0.04 0.00 95 1010.0
20260503222204 57 248 0.0 2.0 0.00 0.04 0.00 95 1009.9
20260503221704 57 248 1.0 2.0 0.00 0.04 0.00 95 1009.8
20260503221204 57 248 0.0 1.0 0.00 0.04 0.00 95 1009.8
20260503220704 57 248 1.0 2.0 0.00 0.04 0.00 95 1009.8
20260503215205 57 228 0.0 2.0 0.00 0.04 0.04 95 1009.7
20260503214702 57 236 2.0 3.0 0.00 0.04 0.04 95 1009.7
20260503214203 57 267 3.0 5.0 0.00 0.04 0.04 94 1009.8
20260503213703 57 251 2.0 3.0 0.00 0.04 0.04 94 1009.7
20260503213203 57 241 2.0 3.0 0.00 0.04 0.04 94 1009.8
20260503212703 57 245 2.0 3.0 0.00 0.04 0.04 94 1009.8
20260503212203 57 248 2.0 3.0 0.00 0.04 0.04 94 1009.7
20260503211703 57 234 1.0 3.0 0.00 0.04 0.04 94 1009.7
20260503211203 57 216 2.0 3.0 0.00 0.04 0.04 94 1009.7
20260503210703 57 214 1.0 3.0 0.00 0.04 0.04 94 1009.8
20260503210203 57 209 1.0 3.0 0.00 0.04 0.04 94 1009.7
20260503205703 57 233 1.0 3.0 0.00 0.04 0.04 94 1009.7
20260503204202 58 209 1.0 3.0 0.00 0.04 0.04 94 1009.6
20260503203203 58 212 1.0 2.0 0.00 0.04 0.04 93 1009.5
20260503202703 58 200 0.0 2.0 0.00 0.04 0.04 94 1009.5
20260503202203 58 200 1.0 2.0 0.00 0.04 0.04 93 1009.5
20260503201203 58 181 1.0 3.0 0.00 0.04 0.04 93 1009.5
20260503200703 58 192 1.0 2.0 0.00 0.04 0.04 93 1009.5
20260503195703 58 219 1.0 2.0 0.00 0.04 0.04 93 1009.6
20260503195203 59 207 1.0 3.0 0.00 0.04 0.04 93 1009.5
20260503194703 59 206 1.0 2.0 0.00 0.04 0.04 93 1009.5
20260503194203 59 208 1.0 2.0 0.00 0.04 0.04 92 1009.4
20260503192703 59 212 2.0 3.0 0.00 0.04 0.04 92 1009.3
20260503192203 59 211 1.0 2.0 0.00 0.04 0.04 92 1009.2
20260503191203 60 207 1.0 3.0 0.00 0.04 0.04 92 1009.2
20260503190703 60 188 1.0 3.0 0.00 0.04 0.04 92 1009.1
20260503190203 60 213 1.0 3.0 0.00 0.04 0.04 92 1009.1
20260503185703 60 207 1.0 7.0 0.00 0.04 0.04 92 1009.0
20260503185204 60 222 2.0 7.0 0.00 0.04 0.04 92 1008.9
20260503184703 60 206 1.0 3.0 0.00 0.04 0.04 92 1008.8
20260503183203 60 230 2.0 5.0 0.00 0.04 0.04 92 1008.8
20260503182703 60 211 2.0 3.0 0.00 0.04 0.04 92 1008.8
20260503182203 60 255 1.0 3.0 0.00 0.04 0.04 92 1008.7
20260503181704 60 227 2.0 5.0 0.00 0.04 0.04 92 1008.7
20260503180703 60 185 2.0 6.0 0.00 0.04 0.04 92 1008.6
20260503180203 60 230 2.0 7.0 0.00 0.04 0.04 92 1008.7
20260503175704 60 225 3.0 6.0 0.00 0.04 0.04 92 1008.7
20260503175203 60 234 3.0 7.0 0.00 0.04 0.04 92 1008.6
20260503174703 60 234 3.0 6.0 0.00 0.04 0.04 92 1008.5
20260503174204 60 252 2.0 5.0 0.00 0.04 0.04 92 1008.5
20260503173203 60 235 2.0 6.0 0.00 0.04 0.04 92 1008.5
20260503172703 60 237 2.0 6.0 0.00 0.04 0.04 92 1008.5
20260503172204 60 224 3.0 6.0 0.00 0.04 0.04 92 1008.4
20260503171704 60 254 2.0 7.0 0.00 0.04 0.04 92 1008.3
20260503171203 60 218 3.0 7.0 0.00 0.04 0.04 92 1008.3
20260503170703 60 219 4.0 7.0 0.00 0.04 0.04 92 1008.4
20260503170204 60 236 3.0 8.0 0.00 0.04 0.04 92 1008.3
20260503160204 61 233 2.0 3.0 0.02 0.04 0.04 92 1008.2
20260503150704 62 252 4.0 8.0 0.02 0.02 0.02 86 1008.4
20260503150204 62 243 5.0 9.0 0.02 0.02 0.02 85 1008.5
20260503140202 66 233 5.0 16.0 0.00 0.00 0.00 79 1008.3
20260503131203 67 248 9.0 14.0 0.00 0.00 0.00 79 1008.4
20260503130702 67 249 7.0 12.0 0.00 0.00 0.00 80 1008.3
20260503130202 67 243 6.0 13.0 0.00 0.00 0.00 80 1008.4
20260503120202 72 244 7.0 12.0 0.00 0.00 0.00 66 1008.2
20260503110703 73 155 5.0 8.0 0.00 0.00 0.00 63 1008.3
20260503110203 72 133 2.0 8.0 0.00 0.00 0.00 64 1008.3
20260503100203 72 103 7.0 10.0 0.00 0.00 0.00 64 1008.6